CZ-6A DEB

Satellite information

Favourite Embed

Satellite Type and Status

DEBRISIN ORBIT

Key statistics

Satellite CZ-6A DEB at a glance.

Uptime

1030

Days in orbit

Revolutions

≈ 14.1

Per day

Orbit

SSO

Sun Synchronous Orbit

Inclination

98.8

Latest

Satellite identification and parameters

Extended collection of information and parameters for CZ-6A DEB.

Object identification

Identified? True

Debris? True

Object name: CZ-6A DEB

International designator: 2022-151ZW

Object number (NORAD): 55874

Object ID (CCSDS): 55874

Country: PEOPLES REPUBLIC OF CHINA (PRC)

Current information (Y/N): Y

RCS size: SMALL

Orbital parameters

Period: 101.959 minutes

Inclination: 98.8184 deg

SMA: 7229.559 km

Apoapsis: 901.169 km

Periapsis: 801.679 km

RAAN: 241.8779 deg

Eccentricy: 0.0068808

Argument of periapsis: 71.6699 deg

Mean anomaly: 289.1942 deg

Mean motion: 14.12326355 rev/day

Mean motion (dot): 0.0000452 rev/day2

B* drag term: 0.0024218258 1/REarth

Two-line elements (TLE)

Creation date: Sept. 5, 2025, 7:38 p.m.

Reference frame: TEME

Reference center: EARTH

Epoch: Sept. 5, 2025, 11:14 a.m. UTC

TLE line 0: 0 CZ-6A DEB

TLE line 1: 1 55874U 22151ZW 25248.46846078 .00004520 00000-0 24218-2 0 9994

TLE line 2: 2 55874 98.8184 241.8779 0068808 71.6699 289.1942 14.12326355132581

Live tracking on map

Real-time ground track for satellite CZ-6A DEB.

In-orbit conjunctions

A list of the most updated potential collisions computed for object CZ-6A DEB.

Target Orbit TCA Probability of collision Miss distance Type
EXPLORER 22 LEO 2025-03-25 19:42:00 0.0001857492 299.0 (m) PAYLOAD
METEOR 1-10 LEO 2024-08-28 16:34:10 0.0001099463 214.0 (m) PAYLOAD

Associated space launch

Chinese satellite reported for atmospheric/ocean/environmental/spatial parameter research purposes, details TBD.

CZ-6A DEB was lifted into orbit during the mission ‘Long March 6A | Yunhai 3’, on board a Long March 6A space rocket.

The launch took place on Nov. 11, 2022, 10:52 p.m. from Launch Complex 9A.

For more information about the launch, click the button.

Launch to space Long March 6A | Yunhai 3
Long March 6A | Yunhai 3

Agency: N/A

Status: Launch Successful

Launch date: Nov. 11, 2022, 10:52 p.m. UTC

Rocket: Long March 6A

Launch pad: Launch Complex 9A

Location: Taiyuan Satellite Launch Center, People's Republic of China

...

Latest news about this satellite

There are no fresh news available about this satellite. Check back as we update our databases every day.


Newsletter sign-up

Weekly statistics, charts and insights to help you stay on top of the space industry.